Regional Weather Roundup
Issued by NWS Cleveland, OH

Home | Current Version | Previous Version | Graphics & Text | Print | Product List | Glossary On
Versions: 1 2 3 4 5 6 7 8 9 10 11 12 13 14 15 16 17 18 19 20 21 22 23 24 25 26 27 28 29 30 31 32 33 34 35 36 37 38 39 40 41 42 43 44 45 46 47 48 49 50
000
ASUS41 KCLE 280802
RWRCLE
OHIO REGIONAL WEATHER ROUNDUP
NATIONAL WEATHER SERVICE CLEVELAND, OH
400 AM EDT TUE JUL 28 2015

NOTE: "FAIR" INDICATES FEW OR NO CLOUDS BELOW 12,000 FEET WITH NO
SIGNIFICANT WEATHER AND/OR OBSTRUCTIONS TO VISIBILITY.

OHZ001>008-015>018-024>027-034-035-043-044-280900-
   NORTHWEST OHIO

CITY           SKY/WX    TMP DP  RH WIND       PRES   REMARKS
DEFIANCE       CLEAR     65  61  87 CALM      30.02S
FINDLAY        CLEAR     69  63  81 NE7       30.00F
TOLEDO EXPRESS CLEAR     64  62  93 CALM      30.02S
TOLEDO EXEC    CLEAR     71  62  73 NE3       30.02F
LIMA           CLEAR     66  62  87 E3        30.01S
$$

OHZ009>014-019>023-028>033-038-089-280900-
   NORTHEAST OHIO

CITY           SKY/WX    TMP DP  RH WIND       PRES   REMARKS
CLE-HOPKINS    PTCLDY    69  61  75 S3        30.03F
CLE-LAKEFRONT  CLEAR     74  66  76 CALM      30.00F
CUY CO. ARPT   NOT AVBL
LORAIN-ELYRIA  CLEAR     63  61  93 CALM      30.02F
ASHTABULA      CLEAR     61  60  97 CALM      30.04F
AKRON-CANTON   PTCLDY    67  62  84 NE5       30.02F
WOOSTER        CLEAR     62  60  93 CALM      30.02F
MANSFIELD      CLEAR     68  62  81 CALM      30.03F
YOUNGSTOWN     PTCLDY    64  61  90 E6        30.03F
$$

OHZ042-051>053-060>062-070>072-077>081-280900-
  SOUTHWEST OHIO

CITY           SKY/WX    TMP DP  RH WIND       PRES   REMARKS
CINC-COVINGTON MOCLDY    74  72  93 CALM      29.97F FOG
CINC-LUNKEN    FOG       70  70 100 CALM      29.97S VSB 1
HAMILTON       PTCLDY    70  69  97 CALM      29.98F FOG
DAYTON         CLEAR     71  66  84 E3        30.00S
WRIGHT-PAT AFB CLEAR     73  66  81 N2        29.98S
DAYTON GENERAL   N/A    N/A N/A N/A MISG      29.98S
WILMINGTON     CLEAR     71  69  93 E3        29.98F FOG
$$

OHZ036-037-039>041-045>050-054>059-063>069-073>076-082>088-280900-
  CENTRAL AND SOUTHEAST OHIO

CITY           SKY/WX    TMP DP  RH WIND       PRES   REMARKS
COLUMBUS       MOCLDY    71  65  81 E3        29.97F
OSU AIRPORT    CLEAR     70  64  81 CALM      29.99F
BOLTON FIELD   NOT AVBL
RICKENBACK AFB NOT AVBL
NEWARK         CLEAR     69  65  86 CALM      29.99F
MARION         CLEAR     66  62  87 CALM      30.01F
LANCASTER      PTCLDY    68  66  93 CALM      29.98F
ZANESVILLE     CLEAR     69  65  86 CALM      29.99F
NEW PHILLY     CLEAR     64  64 100 CALM      30.01F FOG
$$


USA.gov is the U.S. government's official web portal to all federal, state and local government web resources and services.